Weather History for KJKL - November, 2011

Change the Weather History Date:

Monday, November 28, 2011

  Actual Average Record
Temperature  
Mean Temperature 53 °F 44 °F  
Max Temperature 59 °F 52 °F 76 °F (2005)
Min Temperature 46 °F 35 °F 16 °F (2013)
Degree Days  
Heating Degree Days 12 22  
Month to date heating degree days 330 460  
Since 1 July heating degree days 664 757  
Cooling Degree Days 0 0  
Month to date cooling degree days 3 0  
Year to date cooling degree days 1255 1150  
Growing Degree Days 2 (Base 50)    
Moisture  
Dew Point 49 °F    
Average Humidity 87    
Maximum Humidity 93    
Minimum Humidity 80    
Precipitation  
Precipitation 0.63 in 0.14 in 0.92 in (1985)
Month to date precipitation 5.38 3.67  
Year to date precipitation 55.73 43.87  
Snow  
Snow 0.00 in 0.00 in - ()
Month to date snowfall T 0.4  
Since 1 July snowfall T 0.5  
Since 1 September snowfall T 0.5  
Snow Depth 0.00 in    
Sea Level Pressure  
Sea Level Pressure 29.77 in    
Wind  
Wind Speed 5 mph (NNE)    
Max Wind Speed 13 mph    
Max Gust Speed 22 mph    
Visibility 6 miles    
Events Fog , Rain    
T = Trace of Precipitation, MM = Missing Value Source: NWS Daily Summary

Daily Weather History Graph

Daily Weather History Graph

Search for Another Location

Airport or City:

Trip Planner

Search our weather history database for the weather conditions in past years. The results will help you decide how hot, cold, wet, or windy it might be!

Date:

Astronomy

Nov. 28, 2011 Rise Set
Actual Time 7:26 AM EST 5:15 PM EST
Civil Twilight 6:57 AM EST 5:44 PM EST
Nautical Twilight 6:25 AM EST 6:16 PM EST
Astronomical Twilight 5:53 AM EST 6:48 PM EST
Moon 10:35 AM EST (11/28) 9:00 PM EST (11/28)
Length of Visible Light 10h 46m
Length of Day
9h 49m
Waxing Crescent, 15% of the Moon is Illuminated
Nov 28
Waxing Crescent
Dec 2
First Quarter
Dec 10
Full
Dec 17
Last Quarter
Dec 24
New

Hourly Weather History & Observations

Time (EST) Temp. Windchill Dew Point Humidity Pressure Visibility Wind Dir Wind Speed Gust Speed Precip Events Conditions
12:00 AM 53.6 °F - 51.8 °F 94% 29.91 in 1.8 mi WNW 5.8 mph - 0.02 in Rain Rain
12:03 AM 53.6 °F - 51.8 °F 94% 29.90 in 3.0 mi NW 8.1 mph - 0.03 in Rain Rain
12:53 AM 50.0 °F - 48.0 °F 93% 29.88 in 6.0 mi Variable 5.8 mph - 0.07 in Rain Light Rain
1:53 AM 48.0 °F - 45.0 °F 89% 29.86 in 10.0 mi Calm Calm - 0.05 in Rain Light Rain
2:53 AM 46.0 °F - 44.1 °F 93% 29.89 in 8.0 mi Calm Calm - 0.01 in Rain Light Rain
3:53 AM 46.0 °F 43.9 °F 43.0 °F 89% 29.89 in 10.0 mi Variable 4.6 mph - 0.04 in Rain Light Rain
4:53 AM 46.0 °F 43.9 °F 43.0 °F 89% 29.88 in 9.0 mi NNE 4.6 mph - 0.03 in Rain Light Rain
5:53 AM 46.0 °F 43.9 °F 44.1 °F 93% 29.86 in 10.0 mi Variable 4.6 mph - 0.03 in Rain Light Rain
6:53 AM 46.0 °F - 44.1 °F 93% 29.86 in 10.0 mi Calm Calm - 0.01 in Rain Light Rain
7:34 AM 46.4 °F 45.2 °F 44.6 °F 93% 29.87 in 1.8 mi Variable 3.5 mph - 0.00 in Rain Light Rain
7:37 AM 46.4 °F 45.2 °F 44.6 °F 93% 29.87 in 0.8 mi Variable 3.5 mph - 0.00 in Rain Light Rain
7:53 AM 46.9 °F - 44.1 °F 90% 29.86 in 0.5 mi Variable 4.6 mph - 0.00 in Fog Fog
8:53 AM 46.9 °F - 45.0 °F 93% 29.85 in 0.2 mi Variable 4.6 mph - 0.01 in Fog , Rain Light Rain
9:53 AM 48.2 °F - 46.4 °F 93% 29.84 in 0.2 mi Variable 4.6 mph - N/A Fog , Rain Light Rain
10:53 AM 50.0 °F - 48.0 °F 93% 29.82 in 1.2 mi Variable 4.6 mph - N/A   Overcast
10:58 AM 50.0 °F - 48.2 °F 94% 29.83 in 2.0 mi NE 4.6 mph - N/A   Overcast
11:09 AM 51.8 °F - 48.2 °F 88% 29.82 in 4.0 mi NE 6.9 mph - N/A   Overcast
11:53 AM 53.6 °F - 51.8 °F 94% 29.79 in 10.0 mi Variable 5.8 mph - N/A   Overcast
12:35 PM 55.4 °F - 51.8 °F 88% 29.77 in 10.0 mi NE 6.9 mph - N/A   Overcast
12:53 PM 57.0 °F - 53.1 °F 87% 29.74 in 10.0 mi NE 6.9 mph - N/A   Overcast
1:53 PM 57.9 °F - 52.0 °F 81% 29.73 in 10.0 mi Variable 6.9 mph - N/A   Clear
2:53 PM 57.0 °F - 52.0 °F 83% 29.70 in 10.0 mi ENE 8.1 mph - 0.00 in Rain Light Rain
3:53 PM 57.9 °F - 53.1 °F 84% 29.68 in 10.0 mi NE 8.1 mph - 0.01 in   Mostly Cloudy
4:53 PM 59.0 °F - 53.1 °F 81% 29.68 in 10.0 mi NE 6.9 mph - N/A   Mostly Cloudy
5:53 PM 59.0 °F - 53.1 °F 81% 29.70 in 10.0 mi Variable 5.8 mph - 0.00 in Rain Light Rain
6:53 PM 57.9 °F - 53.1 °F 84% 29.66 in 10.0 mi NE 6.9 mph - 0.00 in   Mostly Cloudy
7:53 PM 57.9 °F - 53.1 °F 84% 29.63 in 10.0 mi NE 8.1 mph - 0.00 in Rain Light Rain
8:53 PM 57.0 °F - 54.0 °F 89% 29.64 in 10.0 mi Variable 4.6 mph - 0.01 in Rain Light Rain
9:43 PM 55.4 °F - 53.6 °F 94% 29.66 in 3.0 mi WSW 10.4 mph 21.9 mph 0.01 in Rain Rain
9:50 PM 55.4 °F - 51.8 °F 88% 29.67 in 1.8 mi WSW 10.4 mph 21.9 mph 0.06 in Rain Rain
9:51 PM 54.0 °F - 52.0 °F 93% 29.66 in 1.8 mi Variable 6.9 mph 21.9 mph 0.07 in Rain Heavy Rain
9:58 PM 53.6 °F - 51.8 °F 94% 29.67 in 2.5 mi Variable 4.6 mph 20.7 mph 0.04 in Rain Light Rain
10:06 PM 53.6 °F - 51.8 °F 94% 29.68 in 6.0 mi Variable 6.9 mph 16.1 mph 0.06 in Rain Rain
10:50 PM 51.8 °F - 48.2 °F 88% 29.69 in 2.0 mi WSW 8.1 mph - 0.14 in Rain Heavy Rain
10:53 PM 51.1 °F - 48.9 °F 92% 29.69 in 2.5 mi SW 10.4 mph 18.4 mph 0.16 in Rain Heavy Rain
11:02 PM 51.8 °F - 48.2 °F 88% 29.70 in 5.0 mi Variable 6.9 mph 18.4 mph 0.01 in Rain Light Rain
11:53 PM 50.0 °F - 48.0 °F 93% 29.69 in 5.0 mi Calm Calm - 0.11 in Rain Light Rain